Simultaneous Nadir Overpasses (SNOs) Predictions

Prediction of SNOs between GOES-17 and METOP-B Satellite Orbit:

Table of predicted SNOs for the next 14.0 days since TLE Epoch: 10/24/2020
Index Date Time (GOES-17) GOES-17 Lat,Lon METOP-B Lat,Lon Distance(km) Time Diff (sec)
1 10/24/2020 06:54:11 0.04,-137.21 -0.71,-140.59 385.19 80
2 10/25/2020 06:30:52 0.04,-137.21 0.38,-135.59 184.31 80
3 10/26/2020 18:49:45 -0.04,-137.21 0.60,-140.16 335.71 80
4 10/27/2020 18:31:46 -0.04,-137.21 -0.48,-135.16 233.68 80
5 10/29/2020 06:50:47 0.04,-137.22 -0.51,-139.76 288.94 80
6 10/30/2020 06:27:27 0.04,-137.22 0.57,-134.76 280.10 80
7 10/31/2020 18:46:21 -0.03,-137.21 0.41,-139.33 240.92 80
8 11/01/2020 18:28:21 -0.03,-137.20 -0.67,-134.33 327.75 80
9 11/03/2020 06:47:22 0.03,-137.20 -0.37,-138.92 196.04 80
10 11/04/2020 06:24:03 0.03,-137.19 0.77,-133.93 372.08 80
11 11/05/2020 18:42:55 -0.02,-137.16 0.27,-138.49 150.58 80
12 11/06/2020 18:24:56 -0.02,-137.15 -0.81,-133.48 417.07 80
